Weather History for KMDZ - August, 2013

Change the Weather History Date:

Wednesday, August 7, 2013

  Actual Average Record
Temperature  
Mean Temperature 60 °F -  
Max Temperature 72 °F 77 °F 91 °F (1988)
Min Temperature 47 °F 55 °F 41 °F (1993)
Degree Days  
Heating Degree Days 6    
Growing Degree Days 10 (Base 50)    
Moisture  
Dew Point 55 °F    
Average Humidity 79    
Maximum Humidity 99    
Minimum Humidity 45    
Precipitation  
Precipitation 0.00 in - - ()
Sea Level Pressure  
Sea Level Pressure 29.79 in    
Wind  
Wind Speed 6 mph (NNW)    
Max Wind Speed 13 mph    
Max Gust Speed 18 mph    
Visibility 9 miles    
Events Fog    
Averages and records for this station are not official NWS values.
T = Trace of Precipitation, MM = Missing Value Source: NWS Daily Summary

Daily Weather History Graph

Daily Weather History Graph

Search for Another Location

Airport or City:

Trip Planner

Search our weather history database for the weather conditions in past years. The results will help you decide how hot, cold, wet, or windy it might be!

Date:

Astronomy

Aug. 07, 2013 Rise Set
Actual Time 5:53 AM CDT 8:19 PM CDT
Civil Twilight 5:20 AM CDT 8:52 PM CDT
Nautical Twilight 4:39 AM CDT 9:33 PM CDT
Astronomical Twilight 3:52 AM CDT 10:19 PM CDT
Moon 6:47 AM CDT (8/7) 8:20 PM CDT (8/7)
Length of Visible Light 15h 31m
Length of Day
14h 26m
New Moon, 1% of the Moon is Illuminated
Aug 7
New Moon
Aug 14
First Quarter
Aug 20
Full
Aug 28
Last Quarter
Sep 5
New

Hourly Weather History & Observations

Time (CDT) Temp. Dew Point Humidity Pressure Visibility Wind Dir Wind Speed Gust Speed Precip Events Conditions
12:15 AM 59.9 °F 58.3 °F 94% 29.63 in 10.0 mi SSE 5.8 mph - N/A   Clear
12:35 AM 59.5 °F 58.3 °F 96% 29.65 in 10.0 mi South 5.8 mph - N/A   Clear
12:55 AM 59.5 °F 58.5 °F 96% 29.66 in 10.0 mi South 8.1 mph - N/A   Scattered Clouds
1:15 AM 59.5 °F 58.5 °F 96% 29.67 in 10.0 mi South 8.1 mph - N/A   Scattered Clouds
1:35 AM 59.4 °F 58.5 °F 97% 29.67 in 10.0 mi South 8.1 mph - N/A   Scattered Clouds
1:55 AM 59.2 °F 58.3 °F 97% 29.68 in 10.0 mi Calm Calm - N/A   Mostly Cloudy
2:15 AM 58.5 °F 58.1 °F 99% 29.68 in 10.0 mi Calm Calm - N/A   Scattered Clouds
2:35 AM 57.6 °F 57.2 °F 99% 29.68 in 7.0 mi WNW 4.6 mph - N/A   Scattered Clouds
2:55 AM 57.2 °F 56.7 °F 98% 29.67 in 10.0 mi WNW 5.8 mph - N/A   Clear
3:15 AM 57.2 °F 56.8 °F 99% 29.67 in 2.5 mi WNW 5.8 mph - N/A   Mostly Cloudy
3:35 AM 57.2 °F 56.8 °F 99% 29.67 in 0.5 mi WNW 5.8 mph - N/A Fog Fog
3:55 AM 57.2 °F 56.8 °F 99% 29.67 in 0.5 mi NW 6.9 mph - N/A Fog Fog
4:15 AM 57.4 °F 57.2 °F 99% 29.67 in 1.0 mi West 5.8 mph - N/A   Overcast
4:35 AM 57.6 °F 57.2 °F 99% 29.68 in 7.0 mi WNW 4.6 mph - N/A   Overcast
4:55 AM 57.9 °F 57.2 °F 97% 29.68 in 10.0 mi NW 8.1 mph - N/A   Overcast
5:15 AM 58.1 °F 57.6 °F 98% 29.68 in 7.0 mi WNW 4.6 mph - N/A   Overcast
5:35 AM 58.1 °F 57.7 °F 99% 29.68 in 1.8 mi WNW 4.6 mph - N/A   Overcast
5:55 AM 58.5 °F 58.1 °F 99% 29.68 in 1.5 mi NW 6.9 mph - N/A   Overcast
6:15 AM 59.0 °F 58.6 °F 99% 29.69 in 1.2 mi NNW 10.4 mph - N/A   Overcast
6:35 AM 59.4 °F 59.0 °F 99% 29.69 in 2.5 mi NNW 8.1 mph - N/A   Overcast
6:55 AM 60.1 °F 59.2 °F 97% 29.70 in 10.0 mi NW 8.1 mph - N/A   Overcast
7:15 AM 60.4 °F 58.6 °F 94% 29.72 in 10.0 mi NNW 9.2 mph - N/A   Overcast
7:35 AM 60.4 °F 59.0 °F 95% 29.73 in 10.0 mi NW 6.9 mph - N/A   Overcast
7:55 AM 60.6 °F 58.8 °F 94% 29.74 in 10.0 mi NW 5.8 mph - N/A   Mostly Cloudy
8:15 AM 61.3 °F 58.8 °F 91% 29.74 in 10.0 mi NW 10.4 mph - N/A   Mostly Cloudy
8:35 AM 60.8 °F 57.9 °F 90% 29.74 in 10.0 mi NNW 9.2 mph - N/A   Mostly Cloudy
8:55 AM 63.0 °F 58.8 °F 86% 29.75 in 10.0 mi North 10.4 mph - N/A   Scattered Clouds
9:15 AM 64.2 °F 59.2 °F 84% 29.76 in 10.0 mi North 8.1 mph - N/A   Mostly Cloudy
9:35 AM 64.4 °F 58.5 °F 81% 29.77 in 10.0 mi North 6.9 mph - N/A   Mostly Cloudy
9:55 AM 64.4 °F 57.9 °F 79% 29.77 in 10.0 mi North 10.4 mph - N/A   Overcast
10:15 AM 64.9 °F 58.3 °F 79% 29.77 in 10.0 mi North 8.1 mph - N/A   Overcast
10:35 AM 64.6 °F 57.6 °F 78% 29.79 in 10.0 mi NW 10.4 mph - N/A   Overcast
10:55 AM 64.4 °F 57.4 °F 78% 29.79 in 10.0 mi NNW 8.1 mph - N/A   Overcast
11:15 AM 65.5 °F 58.1 °F 77% 29.80 in 10.0 mi NNW 8.1 mph - N/A   Overcast
11:35 AM 67.1 °F 58.5 °F 74% 29.81 in 10.0 mi WNW 5.8 mph - N/A   Overcast
11:55 AM 66.7 °F 57.4 °F 72% 29.81 in 10.0 mi North 8.1 mph - N/A   Overcast
12:15 PM 65.1 °F 57.4 °F 76% 29.82 in 10.0 mi North 9.2 mph - N/A   Overcast
12:35 PM 67.5 °F 58.8 °F 74% 29.82 in 10.0 mi NNW 4.6 mph - N/A   Overcast
12:55 PM 66.4 °F 57.0 °F 72% 29.83 in 10.0 mi NW 6.9 mph - N/A   Overcast
1:15 PM 68.9 °F 58.8 °F 70% 29.83 in 10.0 mi WNW 4.6 mph - N/A   Scattered Clouds
1:35 PM 67.1 °F 55.0 °F 65% 29.83 in 10.0 mi NW 6.9 mph - N/A   Mostly Cloudy
1:55 PM 69.8 °F 56.7 °F 63% 29.82 in 10.0 mi NNW 9.2 mph - N/A   Mostly Cloudy
2:15 PM 71.6 °F 55.0 °F 56% 29.83 in 10.0 mi NNW 8.1 mph - N/A   Scattered Clouds
2:35 PM 71.1 °F 53.6 °F 54% 29.83 in 10.0 mi NNW 11.5 mph - N/A   Scattered Clouds
2:55 PM 71.8 °F 53.4 °F 52% 29.83 in 10.0 mi NNW 11.5 mph 18.4 mph N/A   Scattered Clouds
3:15 PM 71.6 °F 53.8 °F 53% 29.83 in 10.0 mi NNW 11.5 mph 16.1 mph N/A   Clear
3:35 PM 72.1 °F 53.1 °F 51% 29.83 in 10.0 mi NW 12.7 mph - N/A   Scattered Clouds
3:55 PM 72.0 °F 52.3 °F 50% 29.83 in 10.0 mi NW 10.4 mph 16.1 mph N/A   Scattered Clouds
4:15 PM 71.6 °F 49.8 °F 46% 29.84 in 10.0 mi NNW 11.5 mph - N/A   Scattered Clouds
4:35 PM 71.4 °F 51.1 °F 49% 29.84 in 10.0 mi North 10.4 mph - N/A   Scattered Clouds
4:55 PM 71.4 °F 49.8 °F 46% 29.84 in 10.0 mi North 10.4 mph - N/A   Scattered Clouds
5:15 PM 70.9 °F 49.5 °F 47% 29.84 in 10.0 mi North 12.7 mph 17.3 mph N/A   Scattered Clouds
5:35 PM 70.7 °F 48.9 °F 46% 29.84 in 10.0 mi North 9.2 mph - N/A   Scattered Clouds
5:55 PM 69.8 °F 48.7 °F 47% 29.85 in 10.0 mi NNE 9.2 mph - N/A   Scattered Clouds
6:15 PM 69.6 °F 47.5 °F 45% 29.85 in 10.0 mi North 10.4 mph - N/A   Scattered Clouds
6:35 PM 68.9 °F 47.3 °F 46% 29.85 in 10.0 mi North 8.1 mph - N/A   Clear
6:55 PM 68.0 °F 46.6 °F 46% 29.85 in 10.0 mi North 8.1 mph - N/A   Clear
7:15 PM 66.9 °F 47.5 °F 50% 29.86 in 10.0 mi North 5.8 mph - N/A   Clear
7:35 PM 65.7 °F 47.7 °F 52% 29.86 in 10.0 mi North 4.6 mph - N/A   Clear
7:55 PM 63.7 °F 49.1 °F 59% 29.87 in 10.0 mi NNE 3.5 mph - N/A   Clear
8:15 PM 62.8 °F 49.6 °F 62% 29.87 in 10.0 mi Calm Calm - N/A   Clear
8:35 PM 56.5 °F 50.9 °F 82% 29.88 in 10.0 mi Calm Calm - N/A   Clear
8:55 PM 53.8 °F 51.8 °F 93% 29.89 in 10.0 mi Calm Calm - N/A   Clear
9:15 PM 53.6 °F 50.4 °F 89% 29.90 in 10.0 mi Calm Calm - N/A   Clear
9:35 PM 52.0 °F 49.8 °F 92% 29.91 in 10.0 mi Calm Calm - N/A   Clear
9:55 PM 52.2 °F 50.4 °F 94% 29.92 in 10.0 mi Calm Calm - N/A   Clear
10:15 PM 49.8 °F 49.5 °F 99% 29.92 in 10.0 mi Calm Calm - N/A   Clear
10:35 PM 50.5 °F 50.0 °F 98% 29.92 in 10.0 mi Calm Calm - N/A   Clear
10:55 PM 49.1 °F 48.2 °F 97% 29.92 in 10.0 mi Calm Calm - N/A   Clear
11:15 PM 49.3 °F 48.9 °F 99% 29.93 in 10.0 mi Calm Calm - N/A   Clear
11:35 PM 47.7 °F 47.1 °F 98% 29.93 in 10.0 mi Calm Calm - N/A   Clear
11:55 PM 48.0 °F 47.5 °F 98% 29.93 in 10.0 mi Calm Calm - N/A   Clear